EW0608 Weather Reports


time (UTC)temp
C
wind
direction
speed
KPH
gust
KPH
rain 1hr
cm
rain 24hr
cm
rain mn
cm
humidity
%
barometer
mb
20260506043341 20 219 0.0 1.6 0.00 2.06 0.00 52 1008.3
20260506043057 20 219 0.0 1.6 0.00 2.06 0.00 51 1007.5
20260506042853 20 219 0.0 3.2 0.00 2.06 0.00 49 1008.3
20260506042405 21 219 0.0 4.8 0.00 2.06 0.00 44 1008.4
20260506041836 21 186 0.0 11.3 0.08 2.06 0.00 44 1008.3
20260506041526 21 159 0.0 11.3 0.08 2.06 0.00 46 1007.5
20260506040836 21 131 3.2 8.0 0.13 2.06 0.00 41 1008.2
20260506040349 22 200 1.6 4.8 0.13 2.06 0.00 40 1008.3
20260506040039 21 280 0.0 4.8 0.13 2.06 0.00 40 1007.5
20260506035838 22 141 0.0 6.4 0.13 2.06 2.06 43 1008.3
20260506035411 22 174 1.6 11.3 0.13 2.06 2.06 40 1008.3
20260506034843 22 140 4.8 11.3 0.13 2.06 2.06 39 1008.3
20260506034540 22 108 1.6 9.7 0.13 2.06 2.06 39 1007.6
20260506034335 22 190 3.2 9.7 0.13 2.06 2.06 39 1008.3
20260506033848 22 214 4.8 11.3 0.13 2.06 2.06 39 1008.3
20260506033340 22 167 6.4 11.3 0.13 2.06 2.06 39 1008.3
20260506033053 22 148 3.2 11.3 0.13 2.06 2.06 39 1007.5
20260506032852 22 138 3.2 25.7 0.13 2.06 2.06 39 1008.2
20260506032343 22 195 4.8 25.7 0.13 2.06 2.06 39 1008.3
20260506031856 22 129 3.2 14.5 0.05 1.98 1.98 39 1008.3
20260506031552 22 107 4.8 14.5 0.05 1.98 1.98 39 1007.5
20260506031347 22 186 3.2 12.9 0.00 1.93 1.93 40 1008.3
20260506030839 22 177 3.2 11.3 0.00 1.93 1.93 41 1008.2
20260506030355 21 232 3.2 11.3 0.00 1.93 1.93 42 1008.2
20260506030005 21 141 3.2 11.3 0.00 1.93 1.93 45 1007.6
20260506025903 21 182 3.2 11.3 0.00 1.93 1.93 44 1008.3
20260506025336 20 182 4.8 9.7 0.00 1.93 1.93 45 1008.3
20260506024848 20 117 0.0 8.0 0.00 1.93 1.93 48 1008.4
20260506024549 20 192 0.0 8.0 0.00 1.93 1.93 50 1007.7
20260506024340 20 212 3.2 8.0 0.00 1.93 1.93 47 1008.4
20260506023853 20 87 0.0 4.8 0.00 1.93 1.93 49 1008.4
20260506023406 19 89 0.0 3.2 0.00 1.93 1.93 52 1008.4
20260506023017 19 89 0.0 4.8 0.00 1.93 1.93 51 1007.6
20260506022855 19 89 0.0 4.8 0.00 1.93 1.93 51 1008.4
20260506022348 19 90 526.3 526.3 0.00 0.00 1.93 52 1008.2
20260506021839 19 308 0.0 1.6 0.00 1.93 1.93 52 1008.4
20260506021553 19 276 0.0 3.2 0.00 1.93 1.93 52 1007.7
20260506021353 20 276 0.0 6.4 0.00 1.93 1.93 52 1008.3
20260506020845 20 276 1.6 6.4 0.00 1.93 1.93 48 1008.4
20260506020340 20 149 1.6 6.4 0.00 1.93 1.93 53 1008.4
20260506020049 19 148 1.6 6.4 0.00 1.93 1.93 50 1007.7
20260506015849 20 150 0.0 4.8 0.00 1.93 1.93 49 1008.4
20260506015342 20 228 1.6 4.8 0.00 1.93 1.93 54 1008.3
20260506014838 20 68 1.6 4.8 0.00 1.93 1.93 53 1008.3
20260506014552 20 287 0.0 3.2 0.00 1.93 1.93 55 1007.6
20260506014351 20 142 1.6 4.8 0.00 1.93 1.93 50 1008.2
20260506013845 20 139 0.0 6.4 0.00 1.93 1.93 53 1008.2
20260506013336 20 217 1.6 6.4 0.00 1.93 1.93 54 1008.2
20260506013103 19 292 0.0 3.2 0.00 1.93 1.93 54 1007.6
20260506012849 19 141 0.0 3.2 0.00 1.93 1.93 56 1008.2
20260506012341 19 66 0.0 0.0 0.00 1.93 1.93 54 1008.1
20260506011835 19 66 0.0 0.0 0.00 1.93 1.93 55 1008.2
20260506011516 19 66 0.0 0.0 0.00 1.93 1.93 54 1007.5
20260506011408 20 66 0.0 0.0 0.00 1.93 1.93 54 1008.2
20260506010841 20 63 0.0 0.0 0.00 1.93 1.93 53 1008.2
20260506010353 20 63 0.0 0.0 0.00 1.93 1.93 53 1008.2
20260506010121 20 130 0.0 0.0 0.00 1.93 1.93 53 1007.4
20260506005903 20 144 0.0 0.0 0.00 1.93 1.93 54 1008.1
20260506005336 20 144 0.0 0.0 0.00 1.93 1.93 51 1008.0
20260506004848 21 144 0.0 0.0 0.00 1.93 1.93 48 1008.0
20260506004542 21 144 0.0 0.0 0.00 1.93 1.93 46 1007.2
20260506004342 21 144 0.0 0.0 0.00 1.93 1.93 47 1007.9
20260506003855 21 144 0.0 1.6 0.00 1.93 1.93 49 1007.8
20260506003348 21 144 0.0 4.8 0.00 1.93 1.93 50 1007.9
20260506003041 21 293 0.0 6.4 0.00 1.93 1.93 49 1007.0
20260506002841 22 293 1.6 6.4 0.00 1.93 1.93 49 1007.8
20260506002412 22 79 3.2 6.4 0.00 1.93 1.93 43 1007.6
20260506001844 22 192 3.2 4.8 0.00 1.93 1.93 48 1007.5
20260506001606 22 168 1.6 4.8 0.00 1.93 1.93 46 1006.8
20260506001357 22 137 0.0 1.6 0.00 1.93 1.93 44 1007.6
20260506000850 23 137 0.0 3.2 0.00 1.93 1.93 44 1007.5
20260506000345 23 200 0.0 3.2 0.05 1.93 1.93 43 1007.4
20260506000015 23 203 0.0 3.2 0.05 1.93 1.93 41 1006.8
20260505235913 23 203 0.0 3.2 0.05 1.93 1.93 44 1007.5
20260505234849 24 82 3.2 6.4 0.05 1.93 1.93 37 1007.3
20260505234543 24 142 0.0 4.8 0.05 1.93 1.93 37 1006.7
20260505234343 25 192 1.6 4.8 0.05 1.93 1.93 39 1007.3
20260505233855 25 94 1.6 4.8 0.05 1.93 1.93 35 1007.3
20260505233408 25 163 1.6 9.7 0.05 1.93 1.93 34 1007.2
20260505233046 25 143 0.0 9.7 0.05 1.93 1.93 34 1006.5
20260505232838 25 149 3.2 8.0 0.05 1.93 1.93 34 1007.2
20260505232336 25 129 4.8 8.0 0.05 1.93 1.93 35 1007.1
20260505231904 26 139 3.2 11.3 0.05 1.93 1.93 32 1007.1
20260505231517 25 18 1.6 12.9 0.05 1.93 1.93 32 1006.4
20260505231416 26 188 3.2 12.9 0.05 1.93 1.93 32 1007.0
20260505230846 26 175 6.4 12.9 0.05 1.93 1.93 31 1006.9
20260505230344 26 196 3.2 12.9 0.00 1.88 1.88 30 1006.9
20260505230056 26 219 3.2 12.9 0.05 1.88 1.88 30 1006.2
20260505225851 26 211 4.8 14.5 0.05 1.88 1.88 30 1006.8
20260505225344 26 201 4.8 14.5 0.05 1.88 1.88 30 1006.9
20260505224837 26 5 1.6 14.5 0.05 1.88 1.88 30 1006.8
20260505224549 26 233 3.2 14.5 0.08 1.88 1.88 31 1006.2
20260505224348 26 179 4.8 14.5 0.08 1.88 1.88 30 1006.9
20260505223841 26 178 3.2 11.3 0.08 1.88 1.88 30 1006.9
20260505223354 26 87 1.6 12.9 0.08 1.88 1.88 31 1006.9
20260505223048 26 128 1.6 12.9 0.08 1.88 1.88 31 1006.3
20260505222846 26 152 4.8 12.9 0.08 1.88 1.88 31 1007.0
20260505222357 26 215 4.8 14.5 0.08 1.88 1.88 31 1007.0
20260505221847 26 268 4.8 12.9 0.08 1.88 1.88 30 1007.0
20260505221502 26 180 3.2 12.9 0.08 1.88 1.88 30 1006.4
20260505221400 27 210 4.8 12.9 0.08 1.88 1.88 30 1007.0
20260505220852 27 173 4.8 19.3 0.08 1.88 1.88 29 1007.0
20260505220046 27 182 3.2 12.9 0.03 1.83 1.83 26 1006.2
20260505215846 27 188 3.2 11.3 0.03 1.88 1.83 26 1006.8
20260505214902 27 202 8.0 24.1 0.08 1.88 1.83 25 1006.7
20260505214614 27 153 3.2 11.3 0.05 1.85 1.80 26 1006.1
20260505214353 28 123 1.6 6.4 0.05 1.85 1.80 27 1006.7
20260505213846 28 75 1.6 6.4 0.05 1.85 1.80 26 1006.7
20260505213339 28 137 0.0 4.8 0.05 1.85 1.80 27 1006.8
20260505213055 27 209 1.6 4.8 0.05 1.85 1.80 27 1006.0
20260505212851 27 140 1.6 4.8 0.05 1.85 1.80 26 1006.7
20260505212345 28 199 1.6 6.4 0.08 1.85 1.80 26 1006.8
20260505211917 28 69 1.6 11.3 0.08 1.85 1.80 26 1006.8
20260505211548 28 35 0.0 11.3 0.08 1.85 1.80 26 1006.1
20260505211347 28 158 3.2 11.3 0.08 1.85 1.80 27 1006.8
20260505210839 28 123 3.2 9.7 0.08 1.85 1.80 26 1006.8
20260505210352 28 90 1.6 9.7 0.08 1.85 1.80 25 1006.6
20260505210047 28 168 3.2 9.7 0.08 1.85 1.80 25 1006.0
20260505205846 28 94 1.6 8.0 0.08 1.96 1.80 27 1006.7
20260505205339 28 130 1.6 8.0 0.03 1.91 1.75 26 1006.7
20260505204852 28 169 3.2 8.0 0.03 1.91 1.75 27 1006.5
20260505204545 28 117 0.0 6.4 0.05 1.91 1.75 26 1005.9
20260505204344 28 118 1.6 6.4 0.08 1.91 1.75 26 1006.6
20260505203837 28 132 1.6 6.4 0.08 1.91 1.75 27 1006.7
20260505203349 28 50 3.2 8.0 0.08 1.91 1.75 26 1006.7
20260505203042 28 53 0.0 12.9 0.08 1.91 1.75 25 1006.1
20260505202842 28 187 0.0 12.9 0.10 1.91 1.75 25 1006.8
20260505202353 28 44 3.2 11.3 0.13 1.88 1.73 26 1006.7
20260505201846 28 209 3.2 11.3 0.13 1.88 1.73 25 1006.8
20260505201600 28 148 0.0 11.3 0.13 1.88 1.73 25 1006.1
20260505201358 28 54 3.2 11.3 0.13 1.88 1.73 25 1006.7
20260505200850 29 5 3.2 11.3 0.13 1.88 1.73 25 1006.8
20260505200343 29 112 4.8 16.1 0.13 1.88 1.73 25 1006.9
20260505200054 29 158 8.0 16.1 0.13 1.88 1.73 25 1006.1
20260505195853 29 51 3.2 16.1 0.15 1.91 1.73 25 1006.9
20260505195345 29 88 3.2 17.7 0.15 1.91 1.73 23 1006.8
20260505194839 30 80 6.4 17.7 0.20 1.91 1.73 23 1006.8
20260505194553 29 115 3.2 9.7 0.18 1.88 1.70 24 1006.2
20260505194352 30 145 1.6 12.9 0.18 1.85 1.68 24 1006.9
20260505193904 30 167 1.6 12.9 0.23 1.85 1.68 23 1007.0
20260505193337 30 71 4.8 16.1 0.23 1.85 1.68 24 1006.9
20260505193049 29 69 4.8 22.5 0.23 1.85 1.68 23 1006.4
20260505192849 30 171 6.4 22.5 0.20 1.83 1.65 23 1007.1
20260505192342 31 126 4.8 12.9 0.15 1.78 1.60 23 1007.1
20260505191853 31 83 1.6 12.9 0.15 1.78 1.60 24 1007.0
20260505191507 30 288 4.8 12.9 0.15 1.78 1.60 23 1006.4
20260505191407 30 128 3.2 11.3 0.18 1.78 1.60 24 1007.1
20260505190853 30 96 4.8 14.5 0.28 1.78 1.60 22 1007.3
20260505190348 30 99 4.8 17.7 0.28 1.78 1.60 23 1007.2
20260505190039 30 101 4.8 17.7 0.28 1.78 1.60 22 1006.7
20260505185835 31 113 6.4 16.1 0.25 1.78 1.57 23 1007.4
20260505185349 30 78 6.4 16.1 0.28 1.78 1.57 23 1007.6
20260505184921 30 80 3.2 25.7 0.23 1.73 1.52 23 1007.7
20260505184550 29 17 6.4 25.7 0.23 1.73 1.52 23 1007.1
20260505184349 29 102 6.4 19.3 0.23 1.70 1.50 24 1007.8
20260505183341 28 49 4.8 16.1 0.46 1.65 1.45 25 1007.8
20260505183119 28 76 4.8 16.1 0.46 1.65 1.42 25 1007.2
20260505182853 29 309 11.3 16.1 0.46 1.65 1.45 24 1007.9
20260505182405 29 144 3.2 17.7 0.46 1.65 1.45 27 1008.0
20260505181838 29 258 4.8 17.7 0.46 1.65 1.45 25 1008.0
20260505181552 28 43 6.4 17.7 0.46 1.65 1.42 26 1007.5
20260505181351 29 208 4.8 12.9 0.43 1.63 1.42 27 1008.1
20260505180843 28 44 3.2 17.7 0.33 1.52 1.32 27 1008.3
20260505180357 28 84 8.0 17.7 0.33 1.52 1.32 27 1008.3
20260505180047 28 17 1.6 11.3 0.33 1.52 1.32 27 1007.8
20260505175845 28 42 3.2 11.3 0.43 1.88 1.32 28 1008.4
20260505175339 28 190 3.2 12.9 0.46 1.85 1.30 28 1008.5
20260505174851 28 130 4.8 25.7 0.46 1.85 1.30 29 1008.4
20260505174505 28 5 4.8 25.7 0.46 1.85 1.30 28 1007.8
20260505174405 28 19 4.8 25.7 0.43 1.83 1.27 30 1008.4
20260505173836 28 198 3.2 19.3 0.20 1.55 0.99 29 1008.5
20260505173349 28 138 3.2 19.3 0.20 1.55 0.99 29 1008.5
20260505173051 28 360 6.4 19.3 0.25 1.55 0.99 30 1008.0
20260505172843 28 184 4.8 17.7 0.28 1.55 0.99 29 1008.6
20260505171541 27 47 1.6 14.5 0.41 1.55 0.99 31 1008.3
20260505170024 26 331 8.0 24.1 0.46 1.52 0.97 31 1008.6
20260505164523 26 52 6.4 17.7 0.36 1.45 0.84 31 1008.8
20260505163022 25 128 4.8 16.1 0.23 1.35 0.71 33 1009.2
20260505161521 26 225 4.8 17.7 0.10 1.22 0.58 33 1009.1
20260505153017 26 98 4.8 19.3 0.30 1.22 0.48 36 1009.6
20260505151513 25 65 4.8 17.7 0.30 1.22 0.48 38 1009.6
20260505140357 23 235 6.4 16.1 0.13 0.91 0.13 43 1009.7
20260505124543 18 157 4.8 9.7 0.00 0.79 0.00 64 1010.0
20260505123039 16 94 0.0 4.8 0.00 0.79 0.00 76 1010.2
20260505121539 15 174 1.6 6.4 0.00 0.79 0.00 76 1010.4
20260505120057 13 355 1.6 4.8 0.00 0.79 0.00 83 1010.4
20260505114529 11 69 0.0 3.2 0.00 0.79 0.00 93 1010.7
20260505113028 10 65 0.0 1.6 0.00 0.79 0.00 94 1010.6
20260505111527 9 65 0.0 0.0 0.00 0.79 0.00 95 1010.4
20260505101522 8 65 0.0 0.0 0.00 0.79 0.00 95 1009.7
20260505100022 8 65 0.0 0.0 0.00 0.79 0.00 95 1009.6
20260505094516 8 65 0.0 0.0 0.00 0.79 0.00 94 1009.6
20260505093014 8 65 0.0 3.2 0.00 0.79 0.00 94 1009.6
20260505091523 8 65 0.0 0.0 0.00 0.79 0.00 94 1009.4
20260505090026 8 65 0.0 0.0 0.00 0.79 0.00 94 1009.3
20260505084510 8 65 0.0 3.2 0.00 0.79 0.00 93 1009.3
20260505083009 8 65 0.0 0.0 0.00 0.79 0.00 93 1009.4
20260505081512 8 65 0.0 0.0 0.00 0.79 0.00 93 1009.3
20260505080007 8 65 0.0 0.0 5.71 0.00 0.00 94 1009.3
20260505074506 8 65 0.0 0.0 0.00 0.79 0.00 94 1009.2
20260505073004 8 65 0.0 0.0 0.00 0.79 0.00 94 1009.0
20260505071511 8 65 0.0 0.0 0.00 0.79 0.00 93 1008.8
20260505070002 8 65 0.0 1.6 0.00 0.79 0.00 93 1008.9
20260505064559 8 65 0.0 0.0 0.00 0.79 0.00 92 1009.1
20260505063058 8 65 0.0 3.2 0.00 0.79 0.00 92 1009.1
20260505061558 9 65 0.0 0.0 0.00 0.79 0.00 91 1009.1
20260505060054 9 65 0.0 0.0 0.00 0.79 0.00 91 1009.1
20260505054616 10 65 0.0 0.0 0.00 0.79 0.00 90 1009.1
20260505053101 10 65 0.0 0.0 0.00 0.79 0.00 89 1009.1
20260505051548 10 65 0.0 0.0 0.00 0.79 0.00 89 1009.1